Weather in Sury

Russia / Oryol Oblast     52°58′59″N   37°20′06″E
temp.,
°C
wind,
m/s
gust,
m/s
humid.,
%
clouds,
%
prec.,
mm/h
press.,
hPa
HPBL,
m
9 may, sun
sun900:00+8ssw3698100 0.0 1004366
03:00+5wnw81296100 0.8 1005778
06:00+3nw81497100 1.2 1009726
09:00+4nw81392100 1.5 1012871
12:00+6nw81285100 0.3 10141119
15:00+7nw9127599 0.9 10161377
18:00+7nnw61273100 0.4 10181526
21:00+5nw498312 0.4 1020197
10 may, mon
mon1000:00+3nw411875 0.0 1022210
03:00+2nw411885 0.0 1023219
06:00+3nnw514820 0.0 1025317
09:00+9n712590 0.0 10251347
12:00+11n911470 0.0 10251568
15:00+12nne9114922 0.0 10241592
18:00+10nne8136299 0.0 10231081
21:00+9nne71563100 0.0 1024694
11 may, tue
tue1100:00+8nne8177199 0.0 1023561
03:00+8nne6157983 0.0 1023493
06:00+9nne7178398 0.0 1022465
09:00+11ne9158014 0.0 1022514
12:00+17ene9136931 0.0 10211105
15:00+12se51391100 0.7 1022797
18:00+13ese597943 0.6 10241106
21:00+8ese38881 0.6 1025181
12 may, wed
wed1200:00+6ese37920 0.0 1027147
03:00+5e339352 0.0 102735
06:00+6ne389299 0.0 1026196
09:00+11ne5773100 0.0 1024689
12:00+9ene3391100 1.8 1022474
15:00+8s2287100 6.3 1021407
18:00+10se458010 0.4 1020574
21:00+7e5139363 0.4 1019376
13 may, thu
thu1300:00+9e61592100 0.2 1018508
03:00+9ese5109885 2.1 1018337
06:00+9ese489859 1.8 1018230
09:00+13sse588276 1.9 1018715
12:00+17s586512 0.2 10181521
15:00+18sse676216 0.3 10171619
18:00+17sse377788 0.1 1018452
21:00+15ese3579100 0.2 101876